Simultaneous Nadir Overpasses (SNOs) Predictions

Prediction of SNOs between LANDSAT-8 and NPP Satellite Orbit:

Table of predicted SNOs for the next 14.0 days since TLE Epoch: 4/2/2022
Index Date (LANDSAT-8) Time (LANDSAT-8) Lat,Lon (LANDSAT-8) SZA (LANDSAT-8 ) Date (NPP) Time (NPP) Lat,Lon (NPP) SZA (NPP ) Distance(km) Time Diff (sec)
1 04/02/2022 06:08:34 -70.55, -95.21 114.44 04/02/2022 06:07:22 -70.60, -96.24 114.35 38.33 72
2 04/02/2022 06:58:07 70.12, 71.81 65.13 04/02/2022 06:57:59 70.11, 71.84 65.13 1.62 8
3 04/02/2022 07:47:37 -70.01,-120.72 114.99 04/02/2022 07:48:41 -70.03,-120.71 114.98 2.62 64
4 04/04/2022 22:25:09 -70.19, 20.14 115.82 04/04/2022 22:24:09 -70.21, 20.16 115.80 1.89 60
5 04/04/2022 23:14:36 70.09,-172.37 64.07 04/04/2022 23:14:53 70.09,-172.34 64.07 1.00 17
6 04/05/2022 00:04:16 -69.43, -5.64 116.58 04/05/2022 00:05:24 -69.42, -4.04 116.64 62.52 68
7 04/07/2022 14:41:37 -70.19, 136.02 116.84 04/07/2022 14:41:03 -70.18, 135.97 116.84 1.99 34
8 04/07/2022 15:31:03 70.08, -56.49 63.05 04/07/2022 15:31:46 70.07, -56.54 63.03 2.45 43
9 04/10/2022 06:08:31 70.44, 84.62 62.42 04/10/2022 06:07:19 70.52, 83.90 62.53 28.39 72
10 04/10/2022 06:58:05 -70.12,-108.21 117.91 04/10/2022 06:57:55 -70.12,-108.15 117.91 2.40 10
11 04/10/2022 07:47:32 70.00, 59.27 61.97 04/10/2022 07:48:39 70.00, 59.34 61.96 2.40 67
12 04/12/2022 22:25:03 70.18,-159.88 61.18 04/12/2022 22:24:07 70.20,-159.82 61.21 3.36 56
13 04/12/2022 23:14:32 -70.13, 7.69 118.88 04/12/2022 23:14:49 -70.11, 7.64 118.91 3.14 17
14 04/13/2022 00:04:13 69.24, 174.12 60.25 04/13/2022 00:05:19 69.25, 176.21 60.20 82.29 66
15 04/15/2022 14:41:30 70.17, -44.01 60.20 04/15/2022 14:41:00 70.15, -43.96 60.18 2.78 30
16 04/15/2022 15:31:00 -70.07, 123.48 119.91 04/15/2022 15:31:42 -70.05, 123.50 119.93 1.71 42



Historial Predications of SNOs between LANDSAT-8 and NPP
